www.pogodaiklimat.ru
ПОГОДА на Мак-Мердо
Время
(UTC), дата
15 16.01
18 16.01
21 16.01
00 17.01
03 17.01
06 17.01
09 17.01
12 17.01
15 17.01
18 17.01
21 17.01
00 18.01
03 18.01
06 18.01
09 18.01
12 18.01
15 18.01
18 18.01
21 18.01
00 19.01
03 19.01
06 19.01
09 19.01
12 19.01
15 19.01
18 19.01
21 19.01
00 20.01
03 20.01
06 20.01
09 20.01
12 20.01
15 20.01
18 20.01
21 20.01
00 21.01
03 21.01
06 21.01
09 21.01
12 21.01
15 21.01
18 21.01
21 21.01
00 22.01
03 22.01
06 22.01
09 22.01
12 22.01
15 22.01
18 22.01
21 22.01
03 23.01
06 23.01
09 23.01
12 23.01
Ветер
(напр.,м/с)
Видим. Явления Облачность Т
(С)
Тd
(С)
f
(%)
Тe
(С)
Тes
(С)
Комфортность P
(гПа)
Po
(гПа)
Тmin
(С)
Tmax
(С)
R
(мм)
R24
(мм)
S
(см)
ЮВ 6 11 км 9/9 210 м
[Sc Ac As]
-9.6 -11.5 86 -18 -18 очень
холодно
993.6 989.3
ЮВ 7 11 км 9/9 240 м
[Sc]
-9.7 -11.6 86 -19 -19 очень
холодно
993.4 989.2
ЮВ 4 11 км 8/8 240 м
[Sc]
-8.3 -11.0 81 -15 -15 очень
холодно
993.3 989.0
ЮВ 5 11 км 8/6 210 м
[Sc Ac und]
-6.8 -10.3 76 -14 -13 очень
холодно
992.6 988.4 -10.0 -6.6
ЮВ 4 11 км 9/5 210 м
[Sc Ac und Cc]
-7.3 -10.7 77 -14 -13 очень
холодно
991.8 987.6
ЮВ 5 11 км 9/5 600 м
[Sc Ac As]
-5.5 -11.0 65 -12 -12 холодно 991.2 987.0
ЮВ 6 11 км 9/3 540 м
[Sc Ac As Cc]
-6.1 -11.6 65 -14 -13 очень
холодно
990.8 986.5
ЮВ 5 11 км 5/1 720 м
[Cb calv Ac trans Ci sp]
-60.2 -10.6 100 -81 -80 опасность
обморожения
991.0 986.8 -5.5 -7.6
ЮВ 4 11 км 4/4 720 м
[Sc Ac trans Ci fib]
-6.7 -10.6 74 -13 -13 холодно 991.0 986.7
Ю 3 11 км 4/3 900 м
[Sc Ac trans Ci fib]
-6.8 -10.5 75 -12 -11 прохладно 991.2 987.0
ЮВ 4 11 км 9/3 800 м
[Sc Ac trans Cs]
-4.9 -9.8 68 -11 -9 прохладно 991.4 987.2
ЮВ 4 11 км слаб. снег 10/4 800 м
[Sc Ac trans Cs]
-3.9 -8.9 68 -9 -8 прохладно 991.6 987.5 -8.0 -3.7
ЮВ 6 11 км {снег} 8/1 1200 м
[Sc Ac trans Cs]
-4.8 -8.9 73 -12 -11 холодно 991.4 987.2
ЮВ 5 11 км слаб. снег 9/1 750 м
[Sc Ac As]
-5.1 -8.3 78 -12 -11 холодно 991.3 987.1
ЮВ 5 11 км слаб. снег 10/10 270 м
[Sc]
-7.2 -8.9 88 -15 -15 очень
холодно
990.8 986.6
ЮВ 4 11 км слаб. снег 9/8 750 м
[Sc Ac As]
-7.9 -10.0 85 -15 -15 очень
холодно
990.5 986.2 -8.1 -3.2 0.0
нст 3 11 км {снег} 9/6 900 м
[Sc Ac As Ci fib]
-7.2 -9.9 81 -13 -13 холодно 989.6 985.3
Ю 5 11 км {снег} 9/9 600 м
[Sc Ac As Ci fib]
-5.9 -9.9 73 -13 -13 холодно 988.8 984.5
Ю 4 11 км 8/6 60 м
[Sc Ac und]
-5.7 -8.9 78 -12 -11 холодно 988.4 984.2
С 2 11 км 8/4 300 м
[Sc Ac und Cs]
0.0 -7.1 59 -3 -1 по сезону 987.7 983.6 -7.8 0.0
нст 3 11 км 8/1 600 м
[Sc Ac trans Cc]
-2.2 -8.0 64 -6 -4 по сезону 986.4 982.3
нст 3 11 км 6/1 900 м
[Sc Ac As Cc]
-0.6 -7.1 61 -5 -3 по сезону 985.4 981.3
нст 3 11 км 9/1 1200 м
[Sc Ac lent Ci fib]
-1.6 -5.8 73 -6 -5 по сезону 984.7 980.6
штиль 0 11 км 9/1 1200 м
[Sc Ac lent Cc]
-2.5 -8.2 65 -3 -3 по сезону 984.5 980.4 -2.6 -0.9 0.0
В 4 11 км 8/0 2000 м
[Ac As Ci fib]
-1.5 -12.5 43 -7 -6 по сезону 983.7 979.6
штиль 0 11 км 5/0
[Ac lent Cs]
-0.5 -10.6 46 -1 +1 тепло 984.0 979.9
ЮВ 4 11 км 4/0 2000 м
[Ac trans Ci sp]
+1.4 -15.0 28 -2 0 по сезону 983.8 979.7
ЮВ 6 11 км 5/0
[Ac trans Ci sp]
-1.1 -13.5 38 -7 -5 по сезону 984.3 980.2 -1.1 +2.8
ЮВ 5 11 км 4/0
[Ac trans Ci sp]
-0.9 -13.2 39 -6 -4 по сезону 984.5 980.3
В 8 11 км 3/0
[Ac trans Ci fib]
-1.5 -13.8 39 -8 -8 по сезону 984.5 980.4
нст 3 11 км 1/0
[Ac trans Ci fib]
-0.5 -13.3 37 -4 -3 по сезону 985.0 980.9
нст 3 11 км 1/0
[Ci fib]
-0.4 -14.6 33 -4 -3 по сезону 985.8 981.7 -1.9 +0.2
ЮВ 7 11 км 1/0
[Ci fib]
-4.4 -13.3 50 -12 -12 прохладно 986.4 982.3
ЮВ 7 11 км ясно -5.4 -12.6 57 -13 -13 прохладно 987.1 983.0
ЮВ 6 11 км ясно -4.4 -11.0 60 -12 -10 прохладно 988.4 984.3
ЮВ 7 11 км ясно -4.5 -13.5 49 -12 -11 прохладно 989.6 985.4 -5.8 -0.9
ЮВ 7 11 км ясно -4.3 -12.9 51 -12 -11 прохладно 990.6 986.5
ЮВ 7 11 км 1/1 600 м
[Sc Ac trans]
-4.2 -12.7 52 -12 -11 прохладно 991.9 987.7
ЮВ 6 11 км 1/1 600 м
[Sc Ac trans]
-3.4 -13.1 47 -10 -10 по сезону 993.1 989.0
нст 3 11 км 1/1 1500 м
[Sc Ac trans Ci fib]
-5.7 -12.0 61 -11 -11 по сезону 994.8 990.7 -6.4 -3.3
Ю 6 11 км ясно -3.6 -13.3 47 -10 -10 по сезону 995.6 991.4
Ю 3 11 км 1/1 600 м
[Sc Ac trans]
-1.1 -13.3 39 -5 -4 по сезону 996.7 992.6
ЮВ 5 11 км 8/3 600 м
[Sc Ac As]
-3.5 -8.7 67 -10 -9 по сезону 998.5 994.5
ЮВ 6 11 км слаб. снег 9/3 450 м
[Frnb Ac As]
-6.2 -9.6 77 -14 -14 холодно 1000.3 996.0 -6.8 -0.3
ЮВ 6 11 км {снег} 9/1 600 м
[Sc Ac As]
-4.6 -8.6 74 -12 -12 прохладно 1001.2 997.0
ЮВ 6 11 км {снег} 9/4 750 м
[Sc Ac As]
-4.3 -8.9 70 -12 -11 прохладно 1001.9 997.7
Ю 6 11 км 9/5 750 м
[Sc Ac As]
-3.5 -8.5 68 -10 -10 по сезону 1002.4 998.2
Ю 6 11 км 9/4 1200 м
[Sc Ac As]
-2.9 -7.8 69 -10 -10 по сезону 1002.3 998.1 -6.6 -2.8 0.0
Ю 2 11 км 9/3 1200 м
[Sc Ac As]
-1.9 -8.0 63 -5 -5 по сезону 1001.6 997.4
штиль 0 11 км 8/4 1500 м
[Sc Ac As]
-2.5 -6.9 72 -3 -3 тепло 1001.1 996.9
штиль 0 11 км 9/1 1500 м
[Sc Ac As]
0.0 -5.6 66 -1 +1 тепло 1000.3 996.0
Ю 4 11 км 9/4 1500 м
[Sc Ac As]
0.0 -7.5 57 -5 -4 по сезону 999.3 995.1
Ю 4 11 км 9/6 1500 м
[Sc Ac As]
-1.3 -5.7 72 -7 -6 по сезону 999.7 995.6
Ю 5 11 км 9/6 600 м
[Sc Ac As]
-1.5 -5.0 77 -8 -7 по сезону 999.6 995.4
ЮВ 4 11 км 8/5 1000 м
[Sc Ac As Ci fib]
-1.8 -5.1 78 -7 -7 по сезону 999.6 995.4 -2.0 +2.4
Местоположение метеостанции Мак-Мердо (Антарктида): широта -77.85 долгота 166.66 высота над уровнем моря 24 м.
В архиве по умолчанию представлена погода на Мак-Мердо за последнюю неделю. Архивные данные за месяц целиком и за предыдущие месяцы, начиная с января 2011 года, Вы можете получить, выбрав интересующий диапазон дат из раскрывающегося списка и нажав кнопку "Найти!".
*Определитесь, кто Вы:
Внимание! Время в таблицах - всемирное. Для получения местного времени необходимо прибавить поправку, которая равна 0 ч.
Смотрите также архив погоды в соседних городах и на ближайших метеорологических станциях:
Партнеры нашего сайта:      
Пояснения к столбцам:
  • Ветер - указаны скорость ветра в м/с - средняя за 10 мин, порывы в срок и между сроками (в фигурных скобках) и направление, откуда дует ветер: С - северный,
  • СВ - северо-восточный, В - восточный, ЮВ - юго-восточный, Ю - южный, ЮЗ - юго-западный, З - западный, СЗ - северо-западный.
  • Видимость - горизонтальная дальность видимости в метрах или километрах. При видимости от 1 до 10 км при отсутствии осадков обычно наблюдается дымка, при ухудшении видимости до 1 км и менее - туман. В сухую погоду видимость может ухудшаться дымом, пылью или мглою.
  • Явления - указаны атмосферные явления, наблюдавшиеся в срок или в последний час перед сроком; фигурными скобками обозначены явления, наблюдавшиеся между сроками (за 1-3 часа до срока); квадратными скобками обозначены град или гололедные отложения с указанием их диаметра в мм.
  • Облачность - указаны через наклонную черту общая и нижняя облачность в баллах и высота нижней границы облаков в метрах; квадратными скобками обозначены формы облаков: Ci - перистые, Cs - перисто-слоистые, Cc - перисто-кучевые, Ac - высококучевые, As - высокослоистые, Sc - слоисто-кучевые, Ns - слоисто-дождевые, Cu - кучевые, Cb - кучево-дождевые. Подробнее классификацию облаков см. в Атласе облаков (PDF).
  • T - Температура воздуха - температура, измеренная на высоте 2 м над землей.
  • Td - Температура точки росы - температура, при понижении до которой содержащийся в воздухе водяной пар достигнет насыщения.
  • f - Относительная влажность воздуха - влажноcть воздуха, измеренная на высоте 2 м над землей.
  • Te - Эффективная температура - температура, которую ощущает одетый по сезону человек в тени. Характеристика душности погоды. При расчете учитывается влияние влажности воздуха и скорости ветра на теплоощущения человека.
  • Tes - Эффективная температура на солнце - температура, которую ощущает человек, с поправкой на солнечный нагрев. Характеристика знойности погоды. Зависит от высоты солнца над горизонтом, облачности и скорости ветра. Ночью, в пасмурную погоду, а также при ветре 12 м/с и более поправка равна нулю.
  • P - Атмосферное давление - приведенное к уровню моря атмосферное давление.
  • Po - Атмосферное давление - измеренное на уровне метеостанции атмосферное давление.
  • Tmin - Минимальная температура - минимум температуры воздуха на высоте 2 м над землей.
  • Tmax - Максимальная температура - максимум температуры воздуха на высоте 2 м над землей.
  • R - Количество осадков - Количество выпавших осадков за период времени, мм. При наведении курсора мыши на число - период времени, за который выпало указанное количество осадков.
  • R24 - Количество осадков - Количество выпавших осадков за 24 часа, мм.
  • S - Снежный покров - Высота снежного покрова, см. При наведении курсора мыши на число - состояние снежного покрова и степень покрытия местности в баллах.